GFSNE_850_temp_138.txt.gz
Temp
15 15 15 15 13 14 14 15 15 13 12 13 13 14 14 13 13 13 12 13 12 11 11 11 10 9 9 8 8 8 8 8 8 8 8 9 9 9
14 14 14 14 13 13 14 13 14 14 12 13 14 13 14 13 13 12 12 12 12 11 10 10 10 9 9 8 8 8 8 8 7 7 7 8 8 8
13 13 14 12 12 13 13 13 13 13 12 13 13 13 13 13 12 13 12 12 12 11 11 10 10 9 9 8 8 8 8 8 7 7 7 7 7 8
12 12 12 12 11 11 12 12 12 13 12 12 13 13 13 13 13 12 12 12 12 12 11 10 9 9 9 8 8 8 8 8 7 7 7 7 7 7
11 11 11 11 11 11 12 12 11 11 12 12 12 12 12 12 11 11 11 12 12 11 11 10 9 9 9 8 8 8 7 7 7 7 7 7 7 7
9 9 9 10 11 11 11 11 11 11 11 11 11 12 12 11 11 10 11 11 12 11 11 10 9 9 9 8 8 8 8 7 7 7 7 7 6 7
9 10 9 9 9 9 10 10 10 10 10 10 11 11 11 11 11 11 10 11 11 10 11 10 10 9 9 8 8 8 7 7 7 7 7 6 6 7
8 9 9 8 9 9 9 9 10 10 10 11 10 10 10 11 11 10 10 10 9 10 9 9 9 9 9 8 8 7 7 7 7 7 7 7 7 7
6 8 8 8 9 9 9 9 9 9 9 10 10 10 10 10 10 10 10 10 10 11 9 8 8 8 8 8 7 7 7 7 7 7 7 7 7 6
5 6 6 6 7 7 8 9 9 10 10 10 10 10 10 10 9 10 10 9 9 8 8 8 8 8 8 8 7 7 7 7 7 7 7 7 7 6
4 4 5 4 4 5 6 8 8 9 9 10 10 9 9 10 10 9 9 9 9 8 8 8 8 7 7 7 7 7 7 7 7 7 7 6 6 6
4 4 4 4 5 6 7 8 8 9 9 10 10 10 9 9 10 10 10 9 9 7 8 7 7 7 5 4 5 5 5 6 6 6 6 6 6 6
1 3 4 5 6 7 8 8 8 8 9 10 9 9 10 9 9 9 9 9 9 9 9 8 7 7 5 5 3 3 3 3 4 3 2 2 3 2
-1 -1 1 3 6 7 8 8 9 8 8 9 9 9 9 9 9 9 9 9 8 8 9 8 8 7 6 4 3 2 1 0 1 1 1 -0 -0 -0
-3 -3 -2 1 3 5 6 7 8 8 8 8 8 8 9 9 9 8 8 8 8 8 8 7 7 7 6 6 5 3 1 -1 -1 -1 -1 -1 -1 -1
-3 -3 -3 -2 -2 -1 2 4 5 6 6 7 8 7 8 8 7 8 8 8 8 7 7 6 5 6 5 4 3 3 1 0 -2 -2 -2 -3 -3 -3
-4 -2 -2 -3 -3 -2 -2 -2 -1 0 2 2 3 4 5 5 6 6 7 7 7 7 5 4 3 3 3 3 1 1 1 -2 -3 -4 -4 -5 -5 -6
-5 -6 -7 -9 -9 -8 -7 -6 -5 -4 -3 -2 -1 1 2 3 4 3 4 6 5 4 3 2 3 1 0 -1 -1 0 -1 -3 -4 -6 -6 -5 -7 -8
-8 -10 -10 -11 -11 -11 -10 -10 -9 -8 -7 -5 -4 -3 -2 -0 -0 1 -0 1 1 1 -0 -1 -1 0 -1 -3 -7 -5 -3 -6 -7 -7 -7 -7 -7 -8
-10 -11 -11 -11 -11 -11 -11 -11 -10 -9 -9 -8 -7 -6 -5 -4 -3 -2 -2 -1 -1 -2 -3 -4 -4 -3 -1 -3 -8 -9 -7 -6 -7 -8 -9 -9 -9 -9
-11 -12 -12 -12 -11 -11 -11 -11 -11 -10 -10 -9 -9 -8 -8 -6 -6 -7 -7 -6 -6 -7 -7 -7 -6 -5 -5 -5 -8 -10 -9 -9 -8 -9 -9 -9 -9 -10
-12 -12 -12 -12 -12 -12 -11 -11 -11 -11 -11 -10 -10 -10 -9 -8 -8 -8 -8 -8 -7 -7 -8 -9 -9 -8 -8 -6 -9 -10 -10 -10 -9 -9 -9 -9 -9 -9
-13 -13 -12 -12 -12 -12 -12 -11 -12 -11 -11 -11 -10 -10 -10 -10 -9 -9 -8 -9 -9 -10 -10 -10 -9 -9 -9 -9 -9 -10 -10 -10 -10 -10 -10 -10 -10 -9

GFSNE_850_temp_141.txt.gz
Temp
16 15 15 14 13 13 13 13 14 13 13 14 14 15 15 14 13 14 13 13 12 12 11 12 12 11 10 9 9 9 8 8 8 7 9 8 8 9
15 14 15 14 13 13 13 13 13 13 13 14 14 14 14 14 13 13 13 14 12 12 12 12 11 11 10 9 9 9 8 8 8 8 8 8 8 8
14 13 13 13 13 13 12 13 13 12 12 13 14 14 13 13 13 13 13 13 13 12 13 13 12 11 10 10 9 9 8 8 8 7 8 8 8 7
13 12 12 12 13 12 12 12 12 12 11 12 12 12 12 14 13 13 13 13 13 12 12 12 12 12 11 9 9 9 8 8 8 8 8 8 7 7
12 11 12 12 12 11 11 11 11 11 12 11 12 12 12 12 12 12 12 12 12 12 12 12 12 11 11 10 9 9 8 8 8 8 7 7 7 7
9 10 11 11 11 10 10 11 11 11 11 11 11 12 11 11 11 12 12 12 12 12 12 12 11 11 10 10 8 9 9 8 8 8 8 7 7 7
8 8 9 9 9 9 9 10 10 10 10 10 10 11 11 11 11 11 11 11 11 11 11 11 11 11 10 10 10 8 9 9 8 8 8 7 7 7
8 7 8 8 8 8 8 8 8 8 9 9 10 9 10 10 10 11 10 11 10 11 10 10 10 10 11 10 10 9 9 8 8 7 7 7 7 7
6 7 8 8 8 8 8 9 8 8 8 9 9 9 10 10 10 10 10 11 10 11 10 10 9 9 9 10 10 9 9 8 8 7 7 7 7 7
4 5 4 5 4 5 6 7 8 8 8 9 9 9 9 9 9 10 11 10 10 10 9 9 9 9 8 8 9 9 9 8 8 7 7 7 7 7
1 1 1 2 3 4 4 4 4 5 7 8 9 9 9 9 9 9 9 9 9 9 9 9 9 8 9 7 8 8 8 8 8 7 7 7 7 7
0 -0 -0 1 3 3 4 4 5 5 6 7 9 9 10 9 9 9 9 9 9 9 9 8 8 8 8 7 7 7 8 8 8 7 7 7 7 7
-1 -1 -1 1 2 2 3 3 4 6 7 9 9 9 9 9 9 9 9 9 9 8 9 9 8 7 7 7 7 7 7 7 7 7 6 6 7 7
-3 -3 -2 -2 -1 0 2 3 4 6 7 7 7 8 8 9 9 9 9 9 8 9 8 9 8 8 8 7 7 6 6 5 5 5 4 5 5 4
-5 -5 -4 -3 -2 -1 -0 2 3 4 5 6 6 7 7 8 8 8 8 8 8 8 8 8 8 8 8 8 7 7 5 3 2 2 2 1 1 0
-5 -5 -4 -4 -3 -3 -2 -1 -0 0 0 1 3 5 6 6 7 7 7 7 7 7 8 8 8 7 7 6 7 6 5 4 2 -1 -0 -1 -1 -1
-6 -5 -5 -5 -4 -5 -5 -4 -4 -3 -2 -1 -0 1 2 3 4 5 5 5 6 5 7 6 5 5 4 5 4 4 5 3 0 -1 -2 -2 -3 -3
-7 -7 -8 -8 -8 -9 -8 -8 -7 -7 -6 -5 -4 -3 -2 -1 -0 1 1 2 3 3 4 5 4 3 1 1 1 2 1 0 -1 -3 -3 -3 -5 -5
-8 -10 -11 -11 -10 -10 -10 -10 -10 -9 -8 -7 -7 -7 -6 -5 -4 -3 -2 -1 -0 1 1 2 -1 2 4 0 -2 -3 -1 -2 -4 -5 -5 -5 -5 -7
-11 -11 -12 -12 -11 -11 -10 -10 -10 -10 -9 -9 -9 -8 -8 -7 -6 -5 -4 -3 -2 -2 -2 -2 -2 -2 0 -1 -4 -6 -7 -5 -5 -7 -7 -7 -7 -8
-12 -12 -12 -12 -12 -11 -11 -11 -11 -11 -10 -10 -9 -10 -9 -9 -8 -8 -7 -6 -5 -5 -5 -5 -5 -4 -3 -4 -7 -9 -9 -8 -7 -7 -8 -8 -9 -9
-13 -13 -13 -12 -12 -12 -11 -11 -11 -11 -11 -11 -10 -10 -10 -9 -9 -9 -9 -8 -7 -7 -7 -7 -7 -7 -6 -5 -9 -9 -9 -9 -8 -8 -8 -8 -9 -9
-14 -14 -14 -13 -13 -12 -12 -12 -11 -11 -11 -11 -11 -11 -10 -10 -10 -10 -10 -10 -10 -9 -9 -9 -9 -8 -8 -8 -9 -9 -9 -9 -9 -9 -9 -9 -9 -9

GFSNE_850_temp_144.txt.gz
Temp
15 15 15 15 15 14 14 14 14 13 13 13 14 14 14 14 15 15 15 14 14 13 13 12 11 11 11 11 10 9 9 9 9 8 8 8 8 8
15 15 15 15 15 14 14 13 13 13 12 13 14 14 14 14 14 14 14 14 13 13 13 12 12 11 12 12 11 10 10 9 9 8 8 8 8 9
15 15 15 15 14 14 13 12 12 12 12 13 13 13 13 14 14 14 14 14 13 13 13 12 12 11 12 12 11 10 9 9 9 8 8 8 8 8
14 15 15 13 13 13 12 12 12 12 12 12 13 13 13 13 13 12 13 13 13 14 13 13 12 12 11 11 11 10 10 9 9 9 8 8 7 8
12 13 12 11 11 11 11 12 12 12 11 11 11 12 12 12 12 12 13 12 12 13 13 13 12 11 12 11 11 10 10 8 9 9 9 8 7 7
11 11 11 11 12 12 11 11 11 11 11 11 11 11 11 12 12 11 12 11 12 12 12 12 12 12 11 11 11 10 10 9 9 9 8 8 8 8
9 10 10 10 10 12 10 10 10 10 10 10 10 10 10 11 11 11 11 11 11 11 12 12 12 11 11 11 11 11 9 9 9 8 9 8 8 8
7 9 9 11 10 10 9 10 9 9 9 9 9 9 9 10 10 10 10 10 10 11 11 11 11 11 10 11 11 11 10 8 8 8 9 9 8 8
0 7 6 6 6 5 6 8 8 7 7 8 8 8 8 9 9 10 9 10 10 10 11 11 11 11 10 10 10 10 10 9 9 8 8 9 8 7
2 4 6 6 6 4 6 6 7 7 6 7 7 7 8 8 8 9 9 10 9 9 10 9 10 10 10 10 10 10 10 10 10 9 9 9 8 8
2 2 3 3 3 2 3 3 4 5 5 5 6 5 6 8 8 8 9 9 9 9 9 9 9 9 9 9 9 9 9 10 10 9 9 9 8 8
-0 0 1 1 -0 0 1 2 4 5 6 5 5 5 6 7 9 8 8 8 8 8 8 8 8 8 8 9 10 9 8 9 8 9 8 8 8 8
-4 -3 -2 -2 -1 -1 -0 -0 0 2 4 4 5 6 6 6 8 8 8 8 8 8 8 8 8 8 8 8 9 9 9 8 8 8 8 8 8 7
-4 -4 -3 -4 -3 -3 -3 -3 -2 0 2 3 4 5 6 7 8 8 8 8 7 8 9 8 8 8 8 8 8 8 9 8 8 7 8 8 7 7
-5 -6 -5 -4 -4 -3 -3 -3 -2 -1 -0 1 3 4 5 6 7 7 7 8 8 7 7 8 8 8 8 8 8 9 8 8 7 7 7 6 7 7
-5 -5 -5 -5 -5 -5 -4 -4 -5 -5 -4 -3 -2 -0 1 3 5 5 7 7 7 7 7 7 7 7 7 7 7 8 7 6 7 6 6 4 4 4
-6 -5 -5 -5 -5 -5 -6 -6 -7 -6 -6 -6 -5 -3 -2 -0 1 2 3 4 4 5 5 5 5 5 5 5 6 6 6 6 4 5 3 1 0 -0
-7 -7 -8 -9 -9 -9 -8 -8 -9 -8 -8 -8 -7 -7 -6 -4 -2 -1 -0 1 1 2 2 2 2 3 2 2 2 3 3 3 2 1 0 -1 -2 -3
-8 -10 -10 -10 -11 -10 -10 -10 -10 -10 -10 -9 -9 -8 -8 -7 -6 -4 -3 -3 -2 -1 -1 -1 -1 1 0 -1 -0 -1 -0 1 -1 -3 -4 -3 -3 -4
-11 -11 -12 -12 -11 -11 -11 -11 -10 -10 -10 -10 -9 -9 -9 -9 -8 -7 -6 -6 -5 -4 -4 -3 -2 -2 -2 -1 -2 -4 -4 -3 -3 -4 -6 -6 -5 -6
-12 -12 -13 -12 -12 -12 -12 -12 -11 -11 -11 -11 -11 -10 -10 -9 -9 -9 -8 -8 -8 -7 -6 -6 -5 -4 -3 -3 -4 -7 -7 -7 -6 -5 -6 -6 -8 -8
-13 -13 -13 -13 -13 -13 -13 -12 -12 -12 -12 -11 -12 -11 -11 -10 -10 -10 -10 -9 -9 -9 -9 -8 -7 -6 -5 -4 -7 -8 -9 -9 -8 -8 -7 -6 -8 -9
-14 -14 -14 -13 -13 -13 -13 -13 -13 -13 -13 -12 -12 -12 -11 -11 -10 -10 -10 -10 -10 -10 -10 -9 -9 -8 -8 -8 -8 -9 -9 -9 -9 -9 -9 -8 -8 -8

GFSNE_850_temp_147.txt.gz
Temp
11 12 13 15 15 15 14 15 14 13 14 15 14 15 14 14 14 14 14 14 14 14 13 13 12 12 11 11 10 10 10 9 9 9 9 9 8 8
12 11 12 13 15 15 16 15 15 14 13 14 14 14 14 13 14 13 14 14 14 14 14 14 13 12 11 11 10 10 9 9 9 9 9 9 8 8
14 12 12 13 13 15 16 16 15 13 13 14 13 13 13 13 14 14 14 13 14 14 14 14 13 13 12 12 11 10 11 10 9 9 9 9 8 8
10 10 12 13 13 14 16 16 14 13 12 13 13 13 13 13 13 13 13 13 13 14 14 14 13 13 13 12 11 10 11 10 9 9 10 9 8 8
11 11 12 11 11 13 15 14 14 12 12 12 12 12 13 12 12 12 13 13 13 13 14 14 13 13 13 12 12 11 11 11 9 9 9 9 9 8
10 12 9 11 11 13 13 13 12 11 11 11 12 11 11 11 11 12 12 12 13 12 13 12 12 12 12 12 12 11 11 11 10 9 9 9 9 9
6 7 5 5 9 11 12 11 11 11 11 10 10 11 11 11 10 10 11 11 11 11 11 11 12 12 12 12 11 11 11 11 10 9 9 9 9 9
4 3 4 0 4 3 10 10 10 11 11 10 10 10 10 10 10 10 10 10 9 10 11 11 11 11 12 12 11 11 11 10 10 10 10 9 9 9
2 3 4 2 2 2 2 7 7 9 8 8 9 9 9 9 9 9 9 9 9 9 9 10 11 11 11 11 11 11 10 10 10 10 9 9 9 9
-0 1 2 3 5 3 1 6 5 6 6 7 6 7 7 7 8 8 8 8 8 8 8 8 9 9 10 10 10 10 10 10 10 10 9 9 8 8
-1 0 1 1 1 1 1 4 4 5 6 6 5 4 5 4 5 6 7 7 7 7 8 8 8 9 9 10 10 10 10 10 10 10 9 9 9 8
-3 -3 -3 -1 -1 1 2 3 4 4 5 4 4 4 4 4 4 4 5 5 6 7 7 8 8 9 8 9 10 10 9 10 10 10 9 9 9 8
-4 -4 -4 -4 -4 -3 -2 -0 -1 -1 0 1 3 4 4 4 4 4 5 5 5 6 7 7 8 8 8 8 8 9 9 9 10 10 10 10 9 9
-7 -7 -7 -7 -6 -5 -4 -4 -3 -2 -2 -0 0 1 2 3 4 4 4 4 5 6 6 7 7 7 7 7 7 7 8 8 8 9 9 9 9 8
-6 -7 -6 -6 -5 -5 -6 -5 -4 -3 -3 -2 -2 -2 -2 -1 1 2 3 4 6 6 6 6 6 7 7 7 7 8 8 8 8 8 8 8 7 8
-6 -6 -5 -6 -6 -6 -5 -5 -6 -6 -6 -5 -5 -4 -4 -2 -2 -1 2 3 4 6 5 5 6 6 5 6 6 6 7 7 7 8 7 7 6 6
-6 -5 -5 -5 -6 -6 -7 -7 -7 -7 -7 -7 -7 -6 -5 -4 -4 -3 -2 -1 -1 1 4 5 4 3 4 4 5 5 5 6 6 6 6 6 5 4
-6 -7 -8 -9 -9 -9 -9 -9 -9 -9 -9 -9 -9 -8 -8 -7 -7 -5 -5 -4 -3 -2 -1 -0 0 1 2 2 2 3 4 4 4 4 3 2 2 2
-8 -9 -10 -10 -11 -11 -11 -11 -11 -10 -10 -10 -10 -10 -10 -9 -9 -8 -8 -7 -6 -5 -5 -4 -2 -3 -3 -2 0 1 1 2 2 1 -0 -1 -1 -1
-10 -11 -12 -12 -12 -11 -11 -11 -11 -11 -11 -11 -10 -11 -11 -10 -10 -9 -9 -9 -8 -7 -6 -6 -6 -4 -4 -4 -3 -2 -1 -1 -2 -2 -3 -4 -3 -3
-11 -11 -12 -12 -12 -12 -12 -12 -12 -12 -12 -11 -11 -11 -11 -11 -11 -10 -10 -10 -10 -9 -9 -8 -7 -6 -5 -5 -5 -4 -4 -4 -5 -3 -4 -5 -5 -7
-13 -12 -13 -12 -12 -12 -13 -12 -12 -12 -12 -12 -12 -12 -12 -12 -11 -11 -11 -11 -11 -11 -10 -10 -9 -8 -7 -7 -6 -6 -7 -7 -7 -7 -7 -5 -6 -8
-13 -13 -13 -13 -13 -13 -13 -13 -13 -12 -12 -12 -12 -12 -12 -12 -12 -12 -11 -11 -11 -11 -11 -11 -10 -9 -9 -9 -9 -9 -9 -9 -9 -8 -8 -7 -6 -6